User: anonymous   Login
Location: Unspecified
(0.0000°N, 0.0000°E)
Time: 20:21:51
(UTC+00:00)
Language:

TBA - TO BE ASSIGNED - Orbit

View from above orbital plane
View from above orbital plane
View from above satellite
View from above satellite

Ground track
Ground track

The orbit is defined by the following mean orbital elements,

1 68078U          26145.48589470 +.00000000 +00000-0 +52930-3 0 00007
2 68078  53.1593 181.2554 0001314  46.0911 314.0200 15.34403385    09
Epoch (UTC): 25 May 2026 11:39:41
Eccentricity: 0.0001314
inclination: 53.1593°
perigee height: 462 km
apogee height: 464 km
right ascension of ascending node: 181.2554°
argument of perigee: 46.0911°
revolutions per day: 15.34403385
mean anomaly at epoch: 314.0200°

The dashed part of the orbit path shows where the satellite is in the earth's shadow,  

DLR